Regional Weather Roundup
Issued by NWS Cleveland, OH

Home | Current Version | Previous Version | Graphics & Text | Print | Product List | Glossary On
Versions: 1 2 3 4 5 6 7 8 9 10 11 12 13 14 15 16 17 18 19 20 21 22 23 24 25 26 27 28 29 30 31 32 33 34 35 36 37 38 39 40 41 42 43 44 45 46 47 48 49 50
000
ASUS41 KCLE 210700
RWRCLE
OHIO REGIONAL WEATHER ROUNDUP
NATIONAL WEATHER SERVICE WILMINGTON, OH
300 AM EDT MON APR 21 2014

NOTE: "FAIR" INDICATES FEW OR NO CLOUDS BELOW 12,000 FEET WITH NO
SIGNIFICANT WEATHER AND/OR OBSTRUCTIONS TO VISIBILITY.

OHZ001>008-015>018-024>027-034-035-043-044-210800-
   NORTHWEST OHIO

CITY           SKY/WX    TMP DP  RH WIND       PRES   REMARKS
DEFIANCE       CLEAR     48  34  58 CALM      30.06F
FINDLAY        PTCLDY    50  38  63 SE5       30.06F
TOLEDO EXPRESS PTCLDY    46  39  76 CALM      30.05F
TOLEDO METCALF PTCLDY    49  38  65 CALM      30.07F
LIMA           CLEAR     52  36  54 S7        30.07F
$$

OHZ009>014-019>023-028>033-038-089-210800-
   NORTHEAST OHIO

CITY           SKY/WX    TMP DP  RH WIND       PRES   REMARKS
CLE-HOPKINS    PTCLDY    52  33  48 SE10      30.10F
CLE-LAKEFRONT  PTCLDY    57  29  34 SE10      30.06F
CUY CO. ARPT   NOT AVBL
LORAIN-ELYRIA  CLEAR     51  39  63 S3        30.08F
ASHTABULA      PTCLDY    53  26  35 S6        30.11F
AKRON-CANTON   CLEAR     53  27  36 CALM      30.11F
WOOSTER        NOT AVBL
MANSFIELD      CLEAR     47  39  74 SE6       30.09F
YOUNGSTOWN     PTCLDY    53  27  36 SE8       30.11F
$$

OHZ042-051>053-060>062-070>072-077>081-210800-
  SOUTHWEST OHIO

CITY           SKY/WX    TMP DP  RH WIND       PRES   REMARKS
CINC-COVINGTON MOCLDY    53  43  68 CALM      30.08F
CINC-LUNKEN    CLEAR     46  44  93 CALM      30.09F
HAMILTON       CLEAR     46  42  86 CALM      30.09F
DAYTON         NOT AVBL
WRIGHT-PAT AFB CLEAR     48  43  82 CALM      30.08F
DAYTON GENERAL CLEAR     55  40  56 CALM      30.08S
WILMINGTON     CLEAR     50  41  71 CALM      30.09F
$$

OHZ036-037-039>041-045>050-054>059-063>069-073>076-082>088-210800-
  CENTRAL AND SOUTHEAST OHIO

CITY           SKY/WX    TMP DP  RH WIND       PRES   REMARKS
COLUMBUS       CLEAR     52  41  66 E3        30.08F
OSU AIRPORT    CLEAR     51  40  65 CALM      30.08F
BOLTON FIELD   NOT AVBL
RICKENBACK AFB NOT AVBL
NEWARK         CLEAR     44  37  76 CALM      30.09F
MARION         CLEAR     48  41  76 CALM      30.09F
LANCASTER      CLEAR     41  38  89 CALM      30.09F
ZANESVILLE     CLEAR     45  34  65 CALM      30.09F
NEW PHILLY     CLEAR     44  37  76 CALM      30.11F
$$



USA.gov is the U.S. government's official web portal to all federal, state and local government web resources and services.